This demonstration page uses our WeatherBlox Daily Observations layout. Learn more.

Left ArrowRight Arrow

39.01783, -85.05884

Hourly Observations for October 27, 2015

Temp ( °F °C ) Dew Point ( °F °C ) Humidity (%) Winds ( mph kmh ) Pressure ( in mb ) Visibility ( mi km ) Precip ( " mm )
12:52 am 00:52 Cloudy 57 13.9 36 2.2 45 45 ENE 12 19 30.24 1024 10 16 N/A
1:52 am 01:52 Cloudy 56 13.3 35 1.7 46 46 E 10 17 30.23 1024 10 16 N/A
2:52 am 02:52 Cloudy with Light Rain 56 13.3 36 2.2 47 47 ENE 8 13 30.22 1024 10 16 N/A
3:52 am 03:52 Cloudy with Light Rain 54 12.2 41 5 62 62 ENE 7 11 30.22 1023 10 16 N/A
4:52 am 04:52 Cloudy with Light Rain 52 11.1 43 6.1 72 72 ENE 7 11 30.22 1024 8 13 0.01 0.25
5:52 am 05:52 Cloudy with Rain 50 10 44 6.7 80 80 ENE 8 13 30.23 1024 5 8 0.04 1.02
6:52 am 06:52 Cloudy with Light Rain 49 9.4 46 7.8 90 90 E 8 13 30.23 1024 4 6 0.11 2.79
7:42 am 07:42 Cloudy with Light Rain 48 9 46 8 94 94 E 8 13 30.27 1025 5 8 N/A
7:52 am 07:52 Cloudy with Light Rain 49 9.4 47 8.3 93 93 E 10 17 30.23 1024 5 8 0.07 1.78
8:01 am 08:01 Cloudy with Light Rain 48 9 46 8 94 94 E 9 15 30.27 1025 4 6 0.01 0.25
8:52 am 08:52 Cloudy with Rain 49 9.4 48 8.9 97 97 E 10 17 30.23 1024 3 5 0.04 1.02
9:52 am 09:52 Cloudy with Mist and Fog 51 10.6 49 9.4 92 92 ESE 9 15 30.23 1024 5 8 0.01 0.25
9:57 am 09:57 Cloudy with Mist and Fog 50 10 48 9 94 94 E 8 13 30.27 1025 3 5 N/A
10:52 am 10:52 Cloudy with Mist and Fog 52 11.1 50 10 93 93 E 10 17 30.21 1023 3 5 0.01 0.25
12:52 pm 12:52 Cloudy with Light Rain 53 11.7 52 11.1 96 96 E 10 17 30.18 1022 3 5 0.01 0.25
1:52 pm 13:52 Cloudy with Light Rain 54 12.2 52 11.1 93 93 E 13 20 30.14 1021 3 5 0.01 0.25
2:52 pm 14:52 Cloudy with Light Rain 54 12.2 51 10.6 90 90 E 17 28 30.10 1019 3 5 N/A
3:52 pm 15:52 Cloudy with Light Rain 54 12.2 53 11.7 97 97 E 13 20 30.07 1018 3 5 0.03 0.76
4:42 pm 16:42 Cloudy with Rain 54 12 54 12 100 100 E 12 19 30.06 1018 3 4 0.05 1.27
4:52 pm 16:52 Cloudy with Rain 53 11.7 53 11.7 100 100 E 14 22 30.04 1017 3 5 0.06 1.52
5:52 pm 17:52 Cloudy with Rain 53 11.7 52 11.1 96 96 E 17 28 30.02 1017 3 5 0.10 2.54
6:28 pm 18:28 Cloudy with Rain 54 12 52 11 94 94 E 14 22 30.03 1017 3 5 0.05 1.27
6:52 pm 18:52 Cloudy with Rain 53 11.7 52 11.1 96 96 E 13 20 30.01 1016 3 5 0.13 3.30
7:52 pm 19:52 Cloudy with Rain 53 11.7 52 11.1 96 96 E 16 26 29.98 1015 3 5 0.17 4.32
8:24 pm 20:24 Cloudy with Light Rain 54 12 54 12 100 100 ESE 13 20 29.97 1015 3 5 0.03 0.76
8:52 pm 20:52 Cloudy with Heavy Rain 53 11.7 53 11.7 100 100 ESE 16 26 29.96 1015 3 5 0.08 2.03
9:36 pm 21:36 Cloudy with Heavy Rain 54 12 54 12 100 100 E 14 22 29.94 1014 3 4 N/A
9:52 pm 21:52 Cloudy with Heavy Rain 53 11.7 53 11.7 100 100 ESE 16 26 29.93 1014 3 4 0.33 8.38
10:15 pm 22:15 Cloudy with Heavy Rain 54 12 54 12 100 100 ESE 16 26 29.91 1013 3 4 0.18 4.57
10:30 pm 22:30 Cloudy with Heavy Rain 54 12 54 12 100 100 E 20 31 29.91 1013 3 5 0.27 6.86
10:46 pm 22:46 Cloudy with Rain 54 12 54 12 100 100 ESE 20 31 29.88 1012 5 8 N/A
10:52 pm 22:52 Cloudy with Rain 54 12.2 53 11.7 97 97 ESE 17 28 29.88 1012 4 6 0.32 8.13
11:47 pm 23:47 Cloudy with Light Rain 55 13 54 12 94 94 ESE 25 41 29.85 1011 9 14 0.10 2.54
11:52 pm 23:52 Cloudy with Light Rain 56 13.3 54 12.2 93 93 ESE 25 41 29.83 1010 8 13 0.10 2.54

Powered by AerisWeather